This is the latest recevied weather packets stored in our database for station/object W2BP-13. If no packets are shown the sender has not sent any weather packets the latest 10 day(s).
| Time | Temp. | Humidity | Pressure | Rain* | Wind** | Luminosity | Snow |
|---|---|---|---|---|---|---|---|
| 1778294432 | 20° C | 35% | 1019.6 hPa | 0 mm | - | - | - |
| 1778293532 | 20.56° C | 34% | 1019.5 hPa | 0 mm | - | - | - |
| 1778292633 | 21.67° C | 32% | 1019.1 hPa | 0 mm | - | - | - |
| 1778291732 | 22.22° C | 30% | 1019.2 hPa | 0 mm | - | - | - |
| 1778290832 | 22.78° C | 29% | 1018.8 hPa | 0 mm | - | - | - |
| 1778289933 | 22.78° C | 27% | 1018.8 hPa | 0 mm | - | - | - |
| 1778289033 | 23.89° C | 25% | 1019.1 hPa | 0 mm | - | - | - |
| 1778288132 | 23.89° C | 24% | 1018.9 hPa | 0 mm | - | - | - |
| 1778287233 | 24.44° C | 24% | 1018.8 hPa | 0 mm | - | - | - |
| 1778286333 | 24.44° C | 23% | 1018.9 hPa | 0 mm | - | - | - |
| 1778285433 | 25° C | 23% | 1018.7 hPa | 0 mm | - | - | - |
| 1778284533 | 25° C | 21% | 1018.6 hPa | 0 mm | - | - | - |
| 1778283633 | 25° C | 21% | 1018.8 hPa | 0 mm | - | - | - |
| 1778282733 | 25.56° C | 20% | 1018.8 hPa | 0 mm | - | - | - |
| 1778281833 | 26.11° C | 21% | 1018.9 hPa | 0 mm | - | - | - |
| 1778280933 | 25.56° C | 20% | 1019.1 hPa | 0 mm | - | - | - |
| 1778280033 | 25.56° C | 18% | 1018.9 hPa | 0 mm | - | - | - |
| 1778279133 | 25.56° C | 18% | 1019.2 hPa | 0 mm | - | - | - |
| 1778278232 | 25° C | 19% | 1019.1 hPa | 0 mm | - | - | - |
| 1778277332 | 25° C | 17% | 1019.3 hPa | 0 mm | - | - | - |
| 1778276432 | 25.56° C | 17% | 1019.3 hPa | 0 mm | - | - | - |
| 1778275533 | 25° C | 18% | 1019.1 hPa | 0 mm | - | - | - |
| 1778274632 | 24.44° C | 20% | 1019.4 hPa | 0 mm | - | - | - |
| 1778273733 | 23.89° C | 18% | 1019.3 hPa | 0 mm | - | - | - |
| 1778272833 | 22.78° C | 18% | 1019.2 hPa | 0 mm | - | - | - |
* Rain latest hour (hover to see other rain measurements)
** Current wind speed in m/s (hover to see current wind gust speed)